Meacham, OR

7:57 AM PDT on June 25, 2017 (GMT -0700)
Meacham

Weather History for KMEH - January, 2014

Change the Weather History Date:

Thursday, January 16, 2014

  Actual Average Record
Temperature  
Mean Temperature 35 °F -  
Max Temperature 51 °F 34 °F 51 °F (2014)
Min Temperature 19 °F 21 °F -2 °F (2017)
Degree Days  
Heating Degree Days 30    
Moisture  
Dew Point 20 °F    
Average Humidity 70    
Maximum Humidity 85    
Minimum Humidity 32    
Precipitation  
Precipitation 0.00 in - - ()
Sea Level Pressure  
Sea Level Pressure 30.52 in    
Wind  
Wind Speed 0 mph (North)    
Max Wind Speed 0 mph    
Max Gust Speed -    
Visibility 10 miles    
Events      
Averages and records for this station are not official NWS values.
T = Trace of Precipitation, MM = Missing Value Source: NWS Daily Summary

Daily Weather History Graph

Daily Weather History Graph

Search for Another Location

Airport or City:

Trip Planner

Search our weather history database for the weather conditions in past years. The results will help you decide how hot, cold, wet, or windy it might be!

Date:

Astronomy

Jan. 16, 2014 Rise Set
Actual Time 7:29 AM PST 4:38 PM PST
Civil Twilight 6:56 AM PST 5:11 PM PST
Nautical Twilight 6:19 AM PST 5:47 PM PST
Astronomical Twilight 5:44 AM PST 6:23 PM PST
Moon 5:39 PM PST (1/16) 7:21 AM PST (1/16)
Length of Visible Light 10h 14m
Length of Day
9h 08m
Full, 100% of the Moon is Illuminated
Jan 16
Full
Jan 23
Last Quarter
Jan 30
New
Feb 6
First Quarter
Feb 14
Full

Hourly Weather History & Observations

Time (PST) Temp. Dew Point Humidity Pressure Visibility Wind Dir Wind Speed Gust Speed Precip Events Conditions
12:56 AM 24.1 °F 19.0 °F 81% 30.53 in 10.0 mi Calm Calm - N/A   Clear
1:56 AM 23.0 °F 18.0 °F 81% 30.54 in 10.0 mi Calm Calm - N/A   Clear
2:56 AM 21.9 °F 18.0 °F 85% 30.53 in 10.0 mi Calm Calm - N/A   Clear
3:56 AM 21.0 °F 17.1 °F 85% 30.55 in 10.0 mi Calm Calm - N/A   Clear
4:56 AM 21.0 °F 17.1 °F 85% 30.55 in 10.0 mi Calm Calm - N/A   Clear
5:56 AM 19.9 °F 16.0 °F 85% 30.58 in 10.0 mi Calm Calm - N/A   Clear
6:56 AM 19.9 °F 16.0 °F 85% 30.58 in 10.0 mi Calm Calm - N/A   Clear
7:56 AM 19.9 °F 16.0 °F 85% 30.61 in 10.0 mi Calm Calm - N/A   Clear
8:56 AM 23.0 °F 19.0 °F 85% 30.60 in 10.0 mi Calm Calm - N/A   Clear
9:56 AM 32.0 °F 26.1 °F 79% 30.58 in 10.0 mi Calm Calm - N/A   Clear
10:56 AM 43.0 °F 25.0 °F 49% 30.54 in 10.0 mi Calm Calm - N/A   Clear
11:56 AM 46.0 °F 25.0 °F 44% 30.52 in 10.0 mi Calm Calm - N/A   Clear
12:56 PM 48.0 °F 24.1 °F 39% 30.48 in 10.0 mi Calm Calm - N/A   Clear
1:56 PM 51.1 °F 21.9 °F 32% 30.46 in 10.0 mi Calm Calm - N/A   Clear
2:56 PM 51.1 °F 21.9 °F 32% 30.45 in 10.0 mi Calm Calm - N/A   Clear
3:56 PM 45.0 °F 23.0 °F 42% 30.47 in 10.0 mi Calm Calm - N/A   Clear
7:56 PM 28.0 °F 21.0 °F 75% 30.50 in 10.0 mi Calm Calm - N/A   Clear
8:56 PM 27.0 °F 19.9 °F 75% 30.49 in 10.0 mi Calm Calm - N/A   Clear
9:56 PM 26.1 °F 21.0 °F 81% 30.47 in 10.0 mi Calm Calm - N/A   Clear
10:56 PM 24.1 °F 19.9 °F 84% 30.43 in 10.0 mi Calm Calm - N/A   Clear
11:56 PM 24.1 °F 19.0 °F 81% 30.42 in 10.0 mi Calm Calm - N/A   Clear